sat.trackr.live / text

‹ back to catalog

STARLINK-32078

NORAD 60338 · 2024-136K

PAYLOAD ACTIVE UNKNOWN

§ Identity

Operator
Country
US
Launch date
2024-08-02
Launch site
AFETR
Launch vehicle
Mass (kg)
RCS (m²)

Purposes: comms

External: N2YO · Heavens-Above · Gunter

§ Orbital elements

Epoch: 2026-09-21T02:28:24.944736Z

Period
93.85 min
Inclination
53.1583°
Eccentricity
0.0001169
Mean motion
15.34393829 rev/d
Perigee alt
461.9 km
Apogee alt
463.5 km
Semi-major
6,840.9 km
B*
2.6774e-5
RAAN
246.5434°
Arg perigee
80.2600°
Mean anomaly
279.8535°
Rev number
11,960

§ Raw data

STARLINK-320781 60338U 24136K   26264.10306649  .00000528  00000+0  26774-4 0  99992 60338  53.1583 246.5434 0001169  80.2600 279.8535 15.34393829119601

JSON: /api/v1/satellites/60338 · /tle

For live sub-satellite position, see the globe view (requires WebGL).

§ Visibility from observer

Set your observer location to see the next 7 days of passes ≥ 10°. The values pass through the URL so the page stays shareable.

No JS? Fill the form by hand. The geolocation button needs JavaScript.